Tiempo cada hora Cecele

Hoy, 24 Enero, Domingo

Tiempo Temperatura Precipitaciones Viento Presión Humedad
00:00 +1°C° 0 mm 5 mps 734 mmHg 89%
01:00 +1°C° 0 mm 4 mps 734 mmHg 90%
02:00 +1°C° 0 mm 4 mps 734 mmHg 91%
03:00 +1°C° 0 mm 3 mps 734 mmHg 92%
04:00 +1°C° 0 mm 3 mps 733 mmHg 93%
05:00 +1°C° 0 mm 2 mps 733 mmHg 94%
06:00 +1°C° 0 mm 2 mps 733 mmHg 92%
07:00 -1°C° 0 mm 2 mps 733 mmHg 91%
08:00 +1°C° 0 mm 1 mps 733 mmHg 90%
09:00 +1°C° 0 mm 1 mps 733 mmHg 90%
10:00 -1°C° 0 mm 2 mps 733 mmHg 90%
11:00 -1°C° 0 mm 2 mps 733 mmHg 90%
12:00 -1°C° 0.3 mm 2 mps 733 mmHg 92%
13:00 -1°C° 0.3 mm 2 mps 733 mmHg 95%
14:00 -1°C° 0.3 mm 2 mps 732 mmHg 97%
15:00 -1°C° 0.3 mm 3 mps 732 mmHg 97%
16:00 -1°C° 0.3 mm 3 mps 732 mmHg 97%
17:00 -1°C° 0.3 mm 3 mps 732 mmHg 98%
18:00 -1°C° 0.2 mm 3 mps 733 mmHg 98%
19:00 -1°C° 0.2 mm 3 mps 733 mmHg 98%
20:00 -1°C° 0.2 mm 3 mps 733 mmHg 97%
21:00 -1°C° 0.2 mm 3 mps 733 mmHg 97%
22:00 -2°C° 0.2 mm 4 mps 733 mmHg 97%
23:00 -2°C° 0.2 mm 4 mps 734 mmHg 97%

Mañana, 25 Enero, Lunes

Tiempo Temperatura Precipitaciones Viento Presión Humedad
00:00 -2°C° 0 mm 4 mps 734 mmHg 97%
01:00 -2°C° 0 mm 4 mps 734 mmHg 97%
02:00 -2°C° 0 mm 4 mps 735 mmHg 96%
03:00 -2°C° 0 mm 4 mps 735 mmHg 95%
04:00 -1°C° 0 mm 3 mps 735 mmHg 93%
05:00 -2°C° 0 mm 3 mps 736 mmHg 91%
06:00 -2°C° 0 mm 3 mps 736 mmHg 92%
07:00 -2°C° 0 mm 2 mps 736 mmHg 93%
08:00 -2°C° 0 mm 2 mps 737 mmHg 94%
09:00 -2°C° 0 mm 2 mps 737 mmHg 93%
10:00 -1°C° 0 mm 2 mps 737 mmHg 92%
11:00 -1°C° 0 mm 2 mps 738 mmHg 91%
12:00 -1°C° 0 mm 2 mps 738 mmHg 90%
13:00 -1°C° 0 mm 2 mps 738 mmHg 89%
14:00 -1°C° 0 mm 2 mps 738 mmHg 88%
15:00 -1°C° 0 mm 2 mps 738 mmHg 89%
16:00 -1°C° 0 mm 2 mps 738 mmHg 91%
17:00 -2°C° 0 mm 2 mps 738 mmHg 92%
18:00 -2°C° 0 mm 2 mps 738 mmHg 92%
19:00 -2°C° 0 mm 3 mps 738 mmHg 92%
20:00 -2°C° 0 mm 3 mps 738 mmHg 92%
21:00 -3°C° 0 mm 4 mps 738 mmHg 90%
22:00 -4°C° 0 mm 5 mps 738 mmHg 88%
23:00 -4°C° 0 mm 5 mps 738 mmHg 86%

Pasado mañana, 26 Enero, Martes

Tiempo Temperatura Precipitaciones Viento Presión Humedad
00:00 -4°C° 0 mm 6 mps 738 mmHg 86%
01:00 -4°C° 0 mm 6 mps 737 mmHg 85%
02:00 -4°C° 0 mm 7 mps 737 mmHg 84%
03:00 -4°C° 0 mm 7 mps 737 mmHg 84%
04:00 -4°C° 0 mm 7 mps 736 mmHg 85%
05:00 -5°C° 0 mm 8 mps 736 mmHg 85%
06:00 -5°C° 0 mm 8 mps 736 mmHg 85%
07:00 -5°C° 0 mm 8 mps 736 mmHg 86%
08:00 -5°C° 0 mm 8 mps 735 mmHg 86%
09:00 -5°C° 0.1 mm 9 mps 736 mmHg 87%
10:00 -5°C° 0.1 mm 9 mps 736 mmHg 87%
11:00 -5°C° 0.1 mm 9 mps 736 mmHg 87%
12:00 -4°C° 0.2 mm 9 mps 736 mmHg 85%
13:00 -4°C° 0.2 mm 10 mps 736 mmHg 82%
14:00 -4°C° 0.2 mm 10 mps 736 mmHg 80%
15:00 -4°C° 0.1 mm 9 mps 736 mmHg 82%
16:00 -4°C° 0.1 mm 9 mps 737 mmHg 83%
17:00 -4°C° 0.1 mm 9 mps 737 mmHg 85%
18:00 -4°C° 0.1 mm 9 mps 738 mmHg 87%
19:00 -4°C° 0.1 mm 9 mps 738 mmHg 90%
20:00 -4°C° 0.1 mm 9 mps 738 mmHg 92%
21:00 -4°C° 0.1 mm 8 mps 738 mmHg 91%
22:00 -4°C° 0.1 mm 8 mps 738 mmHg 90%
23:00 -4°C° 0.1 mm 8 mps 739 mmHg 90%

27 Enero, Miércoles

Tiempo Temperatura Precipitaciones Viento Presión Humedad
00:00 -4°C° 0.1 mm 8 mps 739 mmHg 89%
01:00 -4°C° 0.1 mm 8 mps 739 mmHg 88%
02:00 -4°C° 0.1 mm 9 mps 739 mmHg 88%
03:00 -4°C° 0.1 mm 8 mps 739 mmHg 88%
04:00 -5°C° 0.1 mm 8 mps 739 mmHg 87%
05:00 -5°C° 0.1 mm 8 mps 739 mmHg 87%
06:00 -5°C° 0 mm 8 mps 740 mmHg 87%
07:00 -4°C° 0 mm 7 mps 740 mmHg 86%
08:00 -4°C° 0 mm 7 mps 740 mmHg 86%
09:00 -4°C° 0 mm 7 mps 740 mmHg 85%
10:00 -4°C° 0 mm 7 mps 740 mmHg 85%
11:00 -4°C° 0 mm 6 mps 741 mmHg 84%
12:00 -4°C° 0 mm 6 mps 741 mmHg 84%
13:00 -3°C° 0 mm 6 mps 741 mmHg 83%
14:00 -3°C° 0 mm 6 mps 741 mmHg 83%
15:00 -2°C° 0 mm 5 mps 741 mmHg 84%
16:00 -2°C° 0 mm 5 mps 742 mmHg 85%
17:00 -2°C° 0 mm 5 mps 742 mmHg 87%
18:00 -3°C° 0 mm 4 mps 742 mmHg 88%
19:00 -3°C° 0 mm 4 mps 742 mmHg 89%
20:00 -3°C° 0 mm 4 mps 743 mmHg 90%
21:00 -3°C° 0 mm 4 mps 743 mmHg 89%
22:00 -3°C° 0 mm 4 mps 743 mmHg 89%
23:00 -2°C° 0 mm 3 mps 743 mmHg 88%

28 Enero, Jueves

Tiempo Temperatura Precipitaciones Viento Presión Humedad
00:00 -2°C° 0 mm 3 mps 743 mmHg 88%
01:00 -3°C° 0 mm 4 mps 743 mmHg 88%
02:00 -3°C° 0 mm 4 mps 743 mmHg 87%
03:00 -2°C° 0 mm 3 mps 743 mmHg 88%
04:00 -2°C° 0 mm 3 mps 744 mmHg 89%
05:00 -2°C° 0 mm 3 mps 744 mmHg 89%
06:00 -2°C° 0 mm 3 mps 744 mmHg 91%
07:00 -2°C° 0 mm 3 mps 744 mmHg 92%
08:00 -2°C° 0 mm 3 mps 744 mmHg 93%
09:00 -2°C° 0 mm 3 mps 744 mmHg 91%
10:00 -2°C° 0 mm 3 mps 744 mmHg 89%
11:00 -2°C° 0 mm 3 mps 744 mmHg 88%
12:00 -2°C° 0 mm 3 mps 744 mmHg 86%
13:00 -1°C° 0 mm 3 mps 744 mmHg 83%
14:00 -1°C° 0 mm 3 mps 743 mmHg 81%
15:00 -2°C° 0 mm 2 mps 743 mmHg 81%
16:00 -2°C° 0 mm 2 mps 743 mmHg 82%
17:00 0°C° 0 mm 1 mps 743 mmHg 83%
18:00 0°C° 0 mm 1 mps 743 mmHg 82%
19:00 0°C° 0 mm 1 mps 743 mmHg 81%
20:00 -1°C° 0 mm 0 mps 743 mmHg 81%

29 Enero, Viernes

Tiempo Temperatura Precipitaciones Viento Presión Humedad
Mostrar más